Location: Roland
(31.1349°N, 85.4372°W)
Time: 16:20:05
(UTC+00:00)

Vanguard 2 Rocket - Pass Details

Date: 04 December 2021
Orbit: 554 x 3324 km, 32.9° (Epoch: 16 January)

Event Time Altitude Azimuth Distance (km) Brightness Sun altitude
Rises 00:55:42 0° 268° (W) 3,473 11.1 -28.6°
Reaches altitude 10° 00:57:45 10° 270° (W) 2,752 10.3 -29.1°
Maximum altitude 01:04:30 81° 357° (N) 1,443 7.7 -30.5°
Enters shadow 01:06:20 63° 69° (ENE) 1,708 7.8 -30.9°
